Location: Mallard Lake North
(41.9667°N, 88.3709°W)
Time: 00:32:41
(UTC+00:00)

S-56A Canister/Altair - Visible Passes

Search period start: 17 December 2025 00:00
Search period end: 27 December 2025 00:00
Orbit: 632 x 2485 km, 38.9° (Epoch: 16 December)

Date Brightness Start Highest point End Pass type
(mag) Time Alt. Az. Time Alt. Az. Time Alt. Az.
17 Dec 9.5 01:28:23 10° SW 01:29:44 18° SW 01:29:44 18° SW visible
17 Dec 9.6 22:54:09 10° SSE 22:55:09 11° SSE 22:56:09 10° SE visible
18 Dec 8.4 00:53:47 10° SW 00:56:53 31° SSW 00:56:53 31° SSW visible
19 Dec 8.1 00:19:09 10° SW 00:23:24 33° SSE 00:24:02 31° SE visible
19 Dec 8.5 23:44:28 10° SW 23:48:47 29° SSE 23:51:09 18° ESE visible
20 Dec 9.8 01:47:24 10° WSW 01:48:24 16° WSW 01:48:24 16° WSW visible
20 Dec 8.8 23:09:45 10° SSW 23:14:09 26° SSE 23:17:56 10° E visible
21 Dec 8.5 01:12:41 10° WSW 01:15:32 34° SW 01:15:32 34° SW visible
22 Dec 7.4 00:37:53 10° WSW 00:42:35 53° S 00:42:38 53° SSE visible
23 Dec 7.7 00:03:01 10° WSW 00:07:57 50° S 00:09:44 31° ESE visible
23 Dec 10.2 02:06:42 10° W 02:07:00 12° W 02:07:00 12° W visible
23 Dec 8.0 23:28:03 10° WSW 23:33:19 47° SSE 23:36:50 15° E visible
24 Dec 9.1 01:31:56 10° W 01:34:06 26° WSW 01:34:06 26° WSW visible
24 Dec 8.3 22:53:01 10° SW 22:58:39 44° SSE 23:03:04 10° E visible
25 Dec 7.7 00:57:05 10° W 01:01:13 53° SW 01:01:13 53° SW visible
26 Dec 7.4 00:22:08 10° W 00:27:13 61° S 00:28:20 46° SE visible
26 Dec 7.6 23:47:05 10° WSW 23:52:35 62° S 23:55:28 22° ESE visible
